• In Belarus
  • List of Countries
  • For 7 days
  • Water Temperature
  • Satellite Maps
  • Weather Map
  • Weather Widgets
  • user-avatar
    Login

    Hourly Weather Sevan

    Today, 15 July, Monday

    Time Temperature Precipitation Wind Pressure Humidity
    00:00 +18°C° 0 mm 3 mps 639 mmHg 67%
    01:00 +17°C° 0 mm 3 mps 638 mmHg 68%
    02:00 +17°C° 0 mm 2 mps 638 mmHg 68%
    03:00 +17°C° 0 mm 2 mps 638 mmHg 69%
    04:00 +17°C° 0 mm 2 mps 638 mmHg 69%
    05:00 +18°C° 0 mm 2 mps 638 mmHg 69%
    06:00 +18°C° 0 mm 2 mps 638 mmHg 68%
    07:00 +20°C° 0 mm 2 mps 639 mmHg 64%
    08:00 +23°C° 0 mm 2 mps 639 mmHg 59%
    09:00 +25°C° 0 mm 2 mps 640 mmHg 53%
    10:00 +26°C° 0 mm 2 mps 640 mmHg 47%
    11:00 +28°C° 0 mm 3 mps 640 mmHg 42%
    12:00 +29°C° 0 mm 3 mps 640 mmHg 36%
    13:00 +30°C° 0 mm 3 mps 640 mmHg 33%
    14:00 +30°C° 0 mm 3 mps 639 mmHg 30%
    15:00 +31°C° 0 mm 2 mps 639 mmHg 28%
    16:00 +30°C° 0 mm 3 mps 639 mmHg 33%
    17:00 +29°C° 0 mm 3 mps 639 mmHg 37%
    18:00 +29°C° 0 mm 3 mps 638 mmHg 42%
    19:00 +26°C° 0 mm 3 mps 638 mmHg 44%
    20:00 +24°C° 0 mm 3 mps 638 mmHg 47%
    21:00 +21°C° 0 mm 3 mps 637 mmHg 49%
    22:00 +20°C° 0 mm 2 mps 637 mmHg 50%
    23:00 +20°C° 0 mm 2 mps 637 mmHg 50%

    Tomorrow, 16 July, Tuesday

    Time Temperature Precipitation Wind Pressure Humidity
    00:00 +19°C° 0 mm 2 mps 637 mmHg 50%
    01:00 +18°C° 0 mm 2 mps 637 mmHg 52%
    02:00 +18°C° 0 mm 2 mps 637 mmHg 53%
    03:00 +17°C° 0 mm 2 mps 637 mmHg 55%
    04:00 +18°C° 0 mm 2 mps 638 mmHg 55%
    05:00 +18°C° 0 mm 2 mps 638 mmHg 56%
    06:00 +19°C° 0 mm 1 mps 638 mmHg 56%
    07:00 +21°C° 0 mm 2 mps 638 mmHg 49%
    08:00 +24°C° 0 mm 2 mps 639 mmHg 43%
    09:00 +26°C° 0 mm 2 mps 639 mmHg 36%
    10:00 +27°C° 0 mm 2 mps 639 mmHg 33%
    11:00 +28°C° 0 mm 2 mps 639 mmHg 30%
    12:00 +29°C° 0 mm 3 mps 639 mmHg 27%
    13:00 +29°C° 0 mm 3 mps 639 mmHg 26%
    14:00 +30°C° 0 mm 3 mps 639 mmHg 26%
    15:00 +30°C° 0 mm 3 mps 639 mmHg 26%
    16:00 +30°C° 0 mm 2 mps 639 mmHg 30%
    17:00 +29°C° 0 mm 2 mps 639 mmHg 35%
    18:00 +28°C° 0 mm 2 mps 639 mmHg 40%
    19:00 +26°C° 0 mm 3 mps 638 mmHg 49%
    20:00 +22°C° 0 mm 4 mps 638 mmHg 58%
    21:00 +20°C° 0 mm 5 mps 638 mmHg 66%
    22:00 +20°C° 0 mm 4 mps 638 mmHg 65%
    23:00 +19°C° 0 mm 4 mps 638 mmHg 64%

    Day after tomorrow, 17 July, Wednesday

    Time Temperature Precipitation Wind Pressure Humidity
    00:00 +19°C° 0 mm 3 mps 638 mmHg 63%
    01:00 +18°C° 0 mm 3 mps 638 mmHg 63%
    02:00 +18°C° 0 mm 2 mps 637 mmHg 64%
    03:00 +18°C° 0 mm 2 mps 637 mmHg 64%
    04:00 +18°C° 0 mm 2 mps 637 mmHg 64%
    05:00 +19°C° 0 mm 2 mps 638 mmHg 63%
    06:00 +20°C° 0 mm 1 mps 638 mmHg 63%
    07:00 +22°C° 0 mm 1 mps 638 mmHg 58%
    08:00 +24°C° 0 mm 2 mps 639 mmHg 53%
    09:00 +26°C° 0 mm 2 mps 639 mmHg 48%
    10:00 +27°C° 0.1 mm 2 mps 639 mmHg 44%
    11:00 +28°C° 0.1 mm 3 mps 640 mmHg 40%
    12:00 +30°C° 0.1 mm 3 mps 640 mmHg 36%
    13:00 +30°C° 0.1 mm 3 mps 640 mmHg 34%
    14:00 +31°C° 0.1 mm 3 mps 639 mmHg 32%
    15:00 +31°C° 0.1 mm 3 mps 639 mmHg 30%
    16:00 +31°C° 0.1 mm 3 mps 639 mmHg 35%
    17:00 +30°C° 0.1 mm 2 mps 639 mmHg 39%
    18:00 +29°C° 0.1 mm 2 mps 639 mmHg 44%
    19:00 +27°C° 0 mm 2 mps 638 mmHg 48%
    20:00 +25°C° 0 mm 3 mps 638 mmHg 53%
    21:00 +22°C° 0 mm 4 mps 638 mmHg 59%
    22:00 +21°C° 0 mm 4 mps 638 mmHg 58%
    23:00 +21°C° 0 mm 3 mps 638 mmHg 58%

    18 July, Thursday

    Time Temperature Precipitation Wind Pressure Humidity
    00:00 +20°C° 0 mm 3 mps 638 mmHg 58%
    01:00 +20°C° 0 mm 2 mps 638 mmHg 59%
    02:00 +20°C° 0 mm 2 mps 638 mmHg 61%
    03:00 +19°C° 0 mm 2 mps 638 mmHg 62%
    04:00 +20°C° 0 mm 2 mps 638 mmHg 61%
    05:00 +20°C° 0 mm 2 mps 638 mmHg 60%
    06:00 +21°C° 0 mm 2 mps 639 mmHg 58%
    07:00 +24°C° 0 mm 2 mps 639 mmHg 53%
    08:00 +26°C° 0 mm 2 mps 639 mmHg 48%
    09:00 +28°C° 0 mm 2 mps 640 mmHg 43%
    10:00 +29°C° 0 mm 2 mps 640 mmHg 38%
    11:00 +30°C° 0 mm 3 mps 640 mmHg 33%
    12:00 +33°C° 0 mm 3 mps 640 mmHg 28%
    13:00 +33°C° 0 mm 3 mps 640 mmHg 26%
    14:00 +34°C° 0 mm 3 mps 640 mmHg 25%
    15:00 +34°C° 0 mm 3 mps 640 mmHg 23%
    16:00 +32°C° 0.1 mm 2 mps 640 mmHg 29%
    17:00 +32°C° 0.1 mm 2 mps 640 mmHg 34%
    18:00 +31°C° 0.1 mm 2 mps 640 mmHg 40%
    19:00 +28°C° 0 mm 2 mps 639 mmHg 46%
    20:00 +26°C° 0 mm 3 mps 639 mmHg 52%
    21:00 +22°C° 0 mm 4 mps 639 mmHg 58%
    22:00 +22°C° 0 mm 3 mps 639 mmHg 59%
    23:00 +21°C° 0 mm 3 mps 639 mmHg 59%

    19 July, Friday

    Time Temperature Precipitation Wind Pressure Humidity
    00:00 +21°C° 0 mm 3 mps 639 mmHg 59%
    01:00 +20°C° 0 mm 3 mps 639 mmHg 60%
    02:00 +20°C° 0 mm 3 mps 639 mmHg 60%
    03:00 +19°C° 0 mm 2 mps 639 mmHg 61%
    04:00 +20°C° 0 mm 2 mps 640 mmHg 60%
    05:00 +20°C° 0 mm 2 mps 640 mmHg 60%
    06:00 +20°C° 0 mm 2 mps 640 mmHg 60%
    07:00 +23°C° 0 mm 2 mps 641 mmHg 55%
    08:00 +25°C° 0 mm 2 mps 641 mmHg 51%
    09:00 +27°C° 0 mm 2 mps 642 mmHg 46%
    10:00 +29°C° 0 mm 2 mps 642 mmHg 42%
    11:00 +30°C° 0 mm 2 mps 642 mmHg 38%
    12:00 +32°C° 0 mm 2 mps 642 mmHg 33%
    13:00 +32°C° 0.1 mm 2 mps 642 mmHg 33%
    14:00 +34°C° 0.1 mm 3 mps 642 mmHg 32%
    15:00 +34°C° 0.1 mm 3 mps 642 mmHg 32%
    16:00 +33°C° 0.1 mm 3 mps 642 mmHg 39%
    17:00 +30°C° 0.1 mm 4 mps 641 mmHg 46%
    18:00 +29°C° 0.1 mm 4 mps 641 mmHg 53%
    19:00 +27°C° 0 mm 4 mps 641 mmHg 58%
    20:00 +25°C° 0 mm 5 mps 641 mmHg 63%
    21:00 +22°C° 0 mm 5 mps 641 mmHg 69%
    22:00 +22°C° 0 mm 5 mps 642 mmHg 70%
    23:00 +21°C° 0 mm 4 mps 642 mmHg 71%

    20 July, Saturday

    Time Temperature Precipitation Wind Pressure Humidity
    00:00 +21°C° 0 mm 4 mps 642 mmHg 72%
    01:00 +20°C° 0 mm 4 mps 642 mmHg 73%
    02:00 +20°C° 0 mm 3 mps 642 mmHg 74%
    03:00 +20°C° 0 mm 3 mps 642 mmHg 75%
    04:00 +20°C° 0 mm 3 mps 642 mmHg 73%
    05:00 +20°C° 0 mm 3 mps 642 mmHg 71%
    06:00 +21°C° 0 mm 2 mps 643 mmHg 69%
    07:00 +24°C° 0 mm 2 mps 643 mmHg 63%
    08:00 +26°C° 0 mm 2 mps 644 mmHg 57%
    09:00 +28°C° 0 mm 2 mps 644 mmHg 51%
    10:00 +29°C° 0 mm 2 mps 645 mmHg 47%
    11:00 +31°C° 0 mm 2 mps 645 mmHg 43%
    12:00 +33°C° 0 mm 3 mps 645 mmHg 40%
    13:00 +34°C° 0 mm 3 mps 645 mmHg 38%
    14:00 +34°C° 0 mm 3 mps 645 mmHg 36%
    15:00 +35°C° 0 mm 3 mps 645 mmHg 35%
    16:00 +33°C° 0 mm 3 mps 644 mmHg 42%
    17:00 +32°C° 0 mm 4 mps 644 mmHg 49%
    18:00 +30°C° 0 mm 4 mps 644 mmHg 56%
    19:00 +28°C° 0 mm 5 mps 644 mmHg 61%
    20:00 +26°C° 0 mm 5 mps 644 mmHg 66%
    21:00 +23°C° 0 mm 5 mps 644 mmHg 71%
    22:00 +23°C° 0 mm 5 mps 644 mmHg 70%
    23:00 +22°C° 0 mm 4 mps 644 mmHg 69%
    Show more